Regional Weather Roundup
Issued by NWS

Home | Current Version | Previous Version | Graphics & Text | Print | Product List | Glossary On
Versions: 1 2 3 4 5 6 7 8 9 10 11 12 13 14 15 16 17 18 19 20 21 22 23 24 25 26 27 28 29 30 31 32 33 34 35 36 37 38 39 40 41 42 43 44 45 46 47 48 49 50
590
ASUS44 KJAN 280603
RWRMS

MISSISSIPPI HOURLY WEATHER ROUNDUP
NATIONAL WEATHER SERVICE JACKSON MS
1200 AM CST FRI NOV 28 2014

NOTE: "FAIR: INDICATES FEW OR NO CLOUDS BELOW 12,000 FEET WITH NO
SIGNIFICANT WEATHER AND/OR OBSTRUCTIONS TO VISIBILITY.

MSZ001>002-007>008-010>013-018>021-025>028-034>036-280700-
NORTHWEST MISSISSIPPI

CITY           SKY/WX    TMP DP  RH WIND       PRES   REMARKS
CLARKSDALE     FAIR      34  32  93 CALM      30.47F
CLEVELAND      FAIR      33  32  97 CALM      30.46F
GREENWOOD      CLEAR     29  26  89 NE3       30.46F
6HR MIN TEMP:  28; 6HR MAX TEMP:  38;

GREENVILLE     CLEAR     32  30  92 SE5       30.45F WCI  27
6HR MIN TEMP:  31; 6HR MAX TEMP:  40;

GRENADA        FAIR      28  28 100 CALM      30.48F
OLIVE BRANCH   CLEAR     30  30 100 CALM      30.46S
OXFORD         FAIR      28  25  86 CALM      30.47F
TUNICA         CLEAR     32  30  93 SE3       30.47F
$$

MSZ003>006-009-014>017-022>024-029>033-037>039-280700-
NORTHEAST MISSISSIPPI

CITY           SKY/WX    TMP DP  RH WIND       PRES   REMARKS
COLUMBUS AFB   CLEAR     27  24  91 NW1       30.47S
6HR MIN TEMP:  27; 6HR MAX TEMP:  36;

CORINTH        FAIR      28  25  86 CALM      30.46F
GOLDN TRIANGLE CLEAR     27  25  93 CALM      30.46R
STARKVILLE       N/A     28  27  93 CALM      30.48R
TUPELO         CLEAR     30  24  78 NE3       30.46F
6HR MIN TEMP:  28; 6HR MAX TEMP:  37;

$$

MSZ040-058-280700-
CENTRAL MISSISSIPPI

CITY           SKY/WX    TMP DP  RH WIND       PRES   REMARKS
JACKSON INTL   CLEAR     31  28  89 CALM      30.46S
6HR MIN TEMP:  31; 6HR MAX TEMP:  40;

JACKSON HAWKNS CLEAR     33  29  85 CALM      30.46F
6HR MIN TEMP:  33; 6HR MAX TEMP:  42;

MERIDIAN KEY   CLEAR     30  28  92 CALM      30.46S
6HR MIN TEMP:  29; 6HR MAX TEMP:  39;

MERIDIAN NAS   CLEAR     29  27  92 CALM      30.47S
6HR MIN TEMP:  29; 6HR MAX TEMP:  41;

RAYMOND        FAIR      30  27  86 MISG      30.46F
VICKSBURG      CLEAR     30  28  92 CALM      30.46F
6HR MIN TEMP:  28; 6HR MAX TEMP:  41;

$$

MSZ059>079-280700-
SOUTH MISSISSIPPI

CITY           SKY/WX    TMP DP  RH WIND       PRES   REMARKS
BROOKHAVEN     FAIR      32  32 100 CALM      30.46S
HATTIESBURG    CLEAR     34  32  92 CALM      30.47R
6HR MIN TEMP:  34; 6HR MAX TEMP:  48;

MCCOMB         CLEAR     39  30  70 N5        30.44F
6HR MIN TEMP:  39; 6HR MAX TEMP:  49;

NATCHEZ        CLEAR     36  30  80 CALM      30.45S
6HR MIN TEMP:  34; 6HR MAX TEMP:  45;

PINE BELT      CLEAR     36  28  75 CALM      30.46S
6HR MIN TEMP:  36; 6HR MAX TEMP:  45;

$$

MSZ080>082-280700-
COASTAL MISSISSIPPI

CITY           SKY/WX    TMP DP  RH WIND       PRES   REMARKS
BILOXI         CLEAR     42  33  71 VRB5      30.43F
6HR MIN TEMP:  41; 6HR MAX TEMP:  51;

PASCAGOULA     CLEAR     34  31  88 N7        30.43F WCI  28
6HR MIN TEMP:  32; 6HR MAX TEMP:  48;

GULFPORT       CLEAR     41  32  70 N5        30.43F
6HR MIN TEMP:  40; 6HR MAX TEMP:  51;

$$



USA.gov is the U.S. government's official web portal to all federal, state and local government web resources and services.